Location: La Fredeussais
(48.1780°N, 1.3980°W)
Time: 11:59:39
(UTC+00:00)

PRISM - Pass Details

Date: 29 October 2021
Orbit: 561 x 584 km, 98.2° (Epoch: 29 November)

Event Time Altitude Azimuth Distance (km) Brightness Sun altitude
Rises 05:24:16 0° 360° (N) 2,799 ? -14.2°
Reaches altitude 10° 05:26:59 10° 341° (NNW) 1,890 ? -13.7°
Enters shadow 05:29:23 17° 305° (NW) 1,460 ? -13.3°
